• In Deutschland
  • Länderverzeichnis
  • Für 7 Tage
  • Wassertemperatur
  • Satellitenkarten
  • Wetterkarte
  • Widgets
  • user-avatar
    Anmelden

    Stündliche Wetter Salzburg

    Heute, 27 März, Montag

    Zeit Temperatur Niederschläge Wind Luftdruck Luftfeuchtigkeit
    00:00 -6°C° 0 mm 1 m/S 626 mmHg 94%
    01:00 -7°C° 0 mm 1 m/S 626 mmHg 93%
    02:00 -6°C° 0 mm 1 m/S 626 mmHg 93%
    03:00 -6°C° 0 mm 1 m/S 626 mmHg 92%
    04:00 -6°C° 0 mm 1 m/S 626 mmHg 91%
    05:00 -4°C° 0 mm 1 m/S 627 mmHg 89%
    06:00 -4°C° 0 mm 1 m/S 627 mmHg 86%
    07:00 -3°C° 0 mm 1 m/S 627 mmHg 84%
    08:00 0°C° 0 mm 1 m/S 628 mmHg 77%
    09:00 +3°C° 0 mm 1 m/S 629 mmHg 69%
    10:00 +5°C° 0 mm 1 m/S 630 mmHg 62%
    11:00 +6°C° 0 mm 1 m/S 630 mmHg 59%
    12:00 +6°C° 0 mm 2 m/S 630 mmHg 56%
    13:00 +7°C° 0 mm 2 m/S 630 mmHg 52%
    14:00 +7°C° 0 mm 2 m/S 630 mmHg 55%
    15:00 +7°C° 0 mm 2 m/S 630 mmHg 57%
    16:00 +7°C° 0 mm 2 m/S 630 mmHg 59%
    17:00 +5°C° 0 mm 1 m/S 628 mmHg 67%
    18:00 +2°C° 0 mm 1 m/S 627 mmHg 74%
    19:00 -1°C° 0 mm 1 m/S 626 mmHg 82%
    20:00 -2°C° 0 mm 1 m/S 626 mmHg 81%
    21:00 -2°C° 0 mm 1 m/S 627 mmHg 80%
    22:00 -2°C° 0 mm 1 m/S 627 mmHg 79%
    23:00 -2°C° 0 mm 1 m/S 627 mmHg 77%

    Morgen, 28 März, Dienstag

    Zeit Temperatur Niederschläge Wind Luftdruck Luftfeuchtigkeit
    00:00 -3°C° 0 mm 1 m/S 627 mmHg 75%
    01:00 -3°C° 0 mm 1 m/S 627 mmHg 73%
    02:00 -3°C° 0 mm 1 m/S 626 mmHg 71%
    03:00 -3°C° 0 mm 1 m/S 626 mmHg 69%
    04:00 -3°C° 0 mm 1 m/S 626 mmHg 67%
    05:00 -2°C° 0 mm 1 m/S 627 mmHg 66%
    06:00 -1°C° 0 mm 1 m/S 627 mmHg 64%
    07:00 0°C° 0 mm 1 m/S 627 mmHg 62%
    08:00 +2°C° 0 mm 1 m/S 629 mmHg 61%
    09:00 +5°C° 0 mm 1 m/S 630 mmHg 59%
    10:00 +8°C° 0 mm 1 m/S 631 mmHg 58%
    11:00 +8°C° 0 mm 1 m/S 631 mmHg 58%
    12:00 +9°C° 0 mm 1 m/S 631 mmHg 58%
    13:00 +10°C° 0 mm 1 m/S 631 mmHg 58%
    14:00 +10°C° 0 mm 1 m/S 631 mmHg 61%
    15:00 +9°C° 0 mm 1 m/S 631 mmHg 64%
    16:00 +9°C° 0 mm 1 m/S 630 mmHg 68%
    17:00 +7°C° 0 mm 1 m/S 630 mmHg 77%
    18:00 +4°C° 0 mm 1 m/S 629 mmHg 85%
    19:00 +1°C° 0 mm 1 m/S 628 mmHg 94%
    20:00 +1°C° 0 mm 1 m/S 628 mmHg 95%
    21:00 +1°C° 0 mm 1 m/S 629 mmHg 95%
    22:00 +1°C° 0 mm 1 m/S 629 mmHg 96%
    23:00 +1°C° 0 mm 1 m/S 629 mmHg 96%

    übermorgen, 29 März, Mittwoch

    Zeit Temperatur Niederschläge Wind Luftdruck Luftfeuchtigkeit
    00:00 +1°C° 0 mm 1 m/S 629 mmHg 96%
    01:00 0°C° 0 mm 1 m/S 629 mmHg 96%
    02:00 0°C° 0 mm 1 m/S 629 mmHg 96%
    03:00 0°C° 0 mm 1 m/S 629 mmHg 95%
    04:00 0°C° 0 mm 1 m/S 629 mmHg 95%
    05:00 +1°C° 0 mm 1 m/S 630 mmHg 94%
    06:00 +1°C° 0 mm 1 m/S 630 mmHg 93%
    07:00 +2°C° 0 mm 1 m/S 631 mmHg 92%
    08:00 +4°C° 0 mm 1 m/S 631 mmHg 85%
    09:00 +6°C° 0 mm 1 m/S 632 mmHg 78%
    10:00 +8°C° 0 mm 1 m/S 632 mmHg 71%
    11:00 +8°C° 0 mm 1 m/S 632 mmHg 70%
    12:00 +9°C° 0 mm 1 m/S 632 mmHg 69%
    13:00 +10°C° 0 mm 1 m/S 632 mmHg 68%
    14:00 +10°C° 0,1 mm 1 m/S 632 mmHg 69%
    15:00 +9°C° 0,1 mm 1 m/S 632 mmHg 71%
    16:00 +9°C° 0,1 mm 1 m/S 631 mmHg 72%
    17:00 +7°C° 0 mm 1 m/S 631 mmHg 80%
    18:00 +4°C° 0 mm 1 m/S 630 mmHg 88%
    19:00 +2°C° 0 mm 1 m/S 629 mmHg 96%
    20:00 +2°C° 0 mm 1 m/S 630 mmHg 96%
    21:00 +2°C° 0 mm 1 m/S 630 mmHg 96%
    22:00 +3°C° 0 mm 1 m/S 631 mmHg 96%
    23:00 +2°C° 0 mm 1 m/S 631 mmHg 96%

    30 März, Donnerstag

    Zeit Temperatur Niederschläge Wind Luftdruck Luftfeuchtigkeit
    00:00 +2°C° 0 mm 1 m/S 631 mmHg 96%
    01:00 +1°C° 0 mm 1 m/S 631 mmHg 95%
    02:00 +1°C° 0 mm 1 m/S 630 mmHg 95%
    03:00 0°C° 0 mm 1 m/S 630 mmHg 95%
    04:00 0°C° 0 mm 1 m/S 630 mmHg 95%
    05:00 +1°C° 0 mm 1 m/S 630 mmHg 94%
    06:00 +2°C° 0 mm 1 m/S 631 mmHg 93%
    07:00 +2°C° 0 mm 1 m/S 631 mmHg 92%
    08:00 +4°C° 0 mm 0 m/S 632 mmHg 83%
    09:00 +6°C° 0 mm 0 m/S 633 mmHg 74%
    10:00 +8°C° 0 mm 0 m/S 633 mmHg 64%
    11:00 +9°C° 0 mm 0 m/S 633 mmHg 62%
    12:00 +11°C° 0 mm 1 m/S 633 mmHg 59%
    13:00 +12°C° 0 mm 1 m/S 633 mmHg 56%
    14:00 +12°C° 0 mm 1 m/S 633 mmHg 58%
    15:00 +11°C° 0 mm 1 m/S 633 mmHg 61%
    16:00 +11°C° 0 mm 1 m/S 632 mmHg 64%
    17:00 +8°C° 0 mm 1 m/S 631 mmHg 74%
    18:00 +6°C° 0 mm 1 m/S 630 mmHg 84%
    19:00 +3°C° 0 mm 1 m/S 629 mmHg 94%
    20:00 +3°C° 0 mm 1 m/S 630 mmHg 94%
    21:00 +3°C° 0 mm 1 m/S 630 mmHg 93%
    22:00 +2°C° 0 mm 2 m/S 630 mmHg 93%
    23:00 +2°C° 0 mm 2 m/S 630 mmHg 92%

    31 März, Freitag

    Zeit Temperatur Niederschläge Wind Luftdruck Luftfeuchtigkeit
    00:00 +2°C° 0 mm 2 m/S 630 mmHg 92%
    01:00 +2°C° 0 mm 2 m/S 630 mmHg 92%
    02:00 +1°C° 0 mm 2 m/S 629 mmHg 92%
    03:00 +1°C° 0 mm 2 m/S 629 mmHg 92%
    04:00 +1°C° 0 mm 2 m/S 629 mmHg 92%
    05:00 +2°C° 0 mm 2 m/S 629 mmHg 91%
    06:00 +2°C° 0 mm 2 m/S 629 mmHg 90%
    07:00 +3°C° 0 mm 2 m/S 629 mmHg 88%
    08:00 +5°C° 0 mm 2 m/S 630 mmHg 80%
    09:00 +8°C° 0 mm 1 m/S 630 mmHg 73%
    10:00 +10°C° 0 mm 1 m/S 631 mmHg 65%
    11:00 +10°C° 0 mm 2 m/S 631 mmHg 61%
    12:00 +12°C° 0 mm 2 m/S 630 mmHg 58%
    13:00 +13°C° 0 mm 2 m/S 630 mmHg 54%
    14:00 +13°C° 0 mm 2 m/S 630 mmHg 56%
    15:00 +13°C° 0 mm 2 m/S 629 mmHg 58%
    16:00 +12°C° 0 mm 2 m/S 629 mmHg 59%
    17:00 +9°C° 0 mm 2 m/S 628 mmHg 69%
    18:00 +7°C° 0 mm 2 m/S 627 mmHg 79%
    19:00 +4°C° 0 mm 2 m/S 626 mmHg 89%
    20:00 +4°C° 0 mm 2 m/S 626 mmHg 89%
    21:00 +3°C° 0 mm 2 m/S 625 mmHg 89%
    22:00 +3°C° 0 mm 2 m/S 625 mmHg 90%
    23:00 +2°C° 0 mm 2 m/S 625 mmHg 90%

    1 April, Samstag

    Zeit Temperatur Niederschläge Wind Luftdruck Luftfeuchtigkeit
    00:00 +2°C° 0 mm 2 m/S 625 mmHg 90%
    01:00 +2°C° 0 mm 2 m/S 624 mmHg 90%
    02:00 +1°C° 0 mm 2 m/S 624 mmHg 91%
    03:00 +1°C° 0 mm 2 m/S 624 mmHg 91%
    04:00 -1°C° 0 mm 2 m/S 624 mmHg 91%
    05:00 +1°C° 0 mm 2 m/S 624 mmHg 89%
    06:00 +1°C° 0 mm 2 m/S 624 mmHg 88%
    07:00 +1°C° 0 mm 2 m/S 624 mmHg 86%
    08:00 +4°C° 0 mm 2 m/S 625 mmHg 78%
    09:00 +7°C° 0 mm 1 m/S 625 mmHg 69%
    10:00 +9°C° 0 mm 1 m/S 626 mmHg 61%
    11:00 +9°C° 0 mm 2 m/S 626 mmHg 60%
    12:00 +9°C° 0 mm 2 m/S 626 mmHg 58%
    13:00 +10°C° 0 mm 2 m/S 626 mmHg 56%
    14:00 +10°C° 0,3 mm 2 m/S 625 mmHg 60%
    15:00 +9°C° 0,3 mm 2 m/S 624 mmHg 64%
    16:00 +8°C° 0,3 mm 2 m/S 624 mmHg 67%
    17:00 +6°C° 0,3 mm 2 m/S 623 mmHg 76%
    18:00 +5°C° 0,3 mm 1 m/S 622 mmHg 85%
    19:00 +3°C° 0,3 mm 1 m/S 622 mmHg 94%
    20:00 +2°C° 0,2 mm 1 m/S 622 mmHg 94%
    21:00 +1°C° 0,2 mm 2 m/S 622 mmHg 93%
    22:00 +1°C° 0,2 mm 2 m/S 622 mmHg 93%
    23:00 +1°C° 0,1 mm 2 m/S 622 mmHg 93%
    Mehr zeigen